QUAO2: Spring River Near Quapaw, OK

Data processed at Fri Dec 08 2017 23:21


All information presented herein is the property of the government of the United States of America and may be revised or deleted at any time without prior notice.
Dissemination of this information without the expressed written consent of the Public Affairs Office, Tulsa District U.S. Army Corps of Engineers is strictly prohibited.
These data are gathered electronically and, as presented, have not undergone any form of quality control. These data are not guaranteed to be valid or correct.
Go to home page.
Go to station list.

Upstream stations:

Downstream station:
Previous Day
Next Day
Current Day
    
SHEF ID:       QUAO2     Spring River near Quapaw, OK
STATION TYPE:  

               PRECIP     STAGE  STAGE(2)  RIV-FLOW  BAT-LOAD
                   in        ft        ft       cfs      volt
              Ccp-Rev   Ccp-Rev   Ccp-Rev   Ccp-Rev   Ccp-Rev
(US/Central)
12/06 00:00      0.00      5.96      5.94       304     12.41
12/06 01:00      0.00      5.96      5.94       304     12.41
12/06 02:00      0.00      5.96      5.95       304     12.41
12/06 03:00      0.00      5.96      5.95       304     12.33
12/06 04:00      0.00      5.97      5.95       307     12.33
12/06 05:00      0.00      5.98      5.95       311     12.25
12/06 06:00      0.00      5.98      5.96       311     12.25
12/06 07:00      0.00      5.98      5.96       311     12.17
12/06 08:00      0.00      5.99      5.96       315     12.17
12/06 09:00      0.00      6.00      5.94       318     12.73
12/06 10:00      0.00      6.00      5.97       318     13.44
12/06 11:00      0.00      6.00      5.97       318     13.53
12/06 12:00      0.00      6.00      5.97       318     13.53
12/06 13:00      0.00      6.00      5.90       318     13.53
12/06 14:00      0.00      5.99      5.87       315     13.44
12/06 15:00      0.00      5.99      5.90       315     13.44
12/06 16:00      0.00      5.99      5.91       315     13.29
12/06 17:00      0.00      5.99      5.97       315     13.13
12/06 18:00      0.00      5.99      5.98       315     12.81
12/06 19:00      0.00      5.99      5.98       315     12.57
12/06 20:00      0.00      5.99      5.97       315     12.57
12/06 21:00      0.00      5.99      5.97       315     12.49
12/06 22:00      0.00      5.98      5.97       311     12.49
12/06 23:00      0.00      5.98      5.96       311     12.41